STARLINK-6311, 56537

Orbit data source: Space-Track

STARLINK-6311, 56537 is a payload satellite owned by SpaceX/Seattle (US) in LEO that was launched on Sun, 14 May 2023 UTC via an FALCON 9 launch vehicle from the Air Force Eastern Test Range (AFETR). Payload-class satellites include a variety of spacecraft equipped with specific instruments for various scientific and technological missions. These include communications satellites like Starlink; space stations such as the ISS; scientific satellites like the Hubble; Earth observation satellites from companies like Planet Labs, Umbra, and HawkEye 360; GPS; miniature CubeSats for education and research; and military/defense satellites.

Loading next visibility...
Identifier
56537, 2023-065AL
Orbit
LEO
Country
Flag of USUS
Related business
Manufacturer
SpaceX/Seattle
Mission
Operational Commercial Communications
Bus & Motor
STARLINK, Unknown motor
Mass
305 kg wet, ~290 kg dry
Launch date (UTC)
2023-05-14 (3 years ago)
Launch vehicle
FALCON 9
Launch site
Air Force Eastern Test Range (AFETR)
Object type
Payload
Rocket body
Debris
Shape & HBR
Box + 1 Pan, 10.1 m
Radar Cross Section
11.087 m², Large (>1 m²)

Expand to show TLE details & history
Last TLE update: 3 days ago

TLE from 3 days ago
0 STARLINK-6311
1 56537U 23065AL  26170.61355969 -.00000347  00000-0 -30957-5 0  9997
2 56537  43.0054  11.0832 0001650 275.3698  84.6966 15.27573569172022
Epoch: 2026-06-19T14:43Z
TLE epoch observation values (Epoch: 2026-06-19T14:43:31.557Z)
Latitude
0.00003°
Longitude
-117.63827°
Altitude
482.74 km
Speed
7.626 km/s
True Right ascension
00h 44m 19s
True Declination
0° 00' 00"
Sunlit
Object was in daylight at epoch
Visualization orbit readout
Latitude
Unknown
Longitude
Unknown
Altitude
Unknown
Speed
Unknown
Apparent Right ascension
Unknown
Apparent Declination
Unknown
Sunlit
N/A
Visualization observer readout
Local Sidereal Time
21:24:09
Azimuth
Unknown
Elevation
Unknown
Doppler factor
Unknown
Orbital elements
Apogee altitude
486.145 km
Perigee altitude
483.88 km
Semi-major axis
6,863.15 km
Eccentricity
0.00017
Inclination
43.0054°
RAAN
11.0832°
Arg. of periapsis
275.3698°
True anomaly
84.71543°
Mean anomaly
84.6966°
Eccentric anomaly
84.70601°
Mean motion
3.81731 °/min
Orbital period
94.31 mins
BSTAR
-0.0000030957
Loading maneuver chart data...
Computing Atmospheric mass density...
Loading historical data...
Loading historical data...
Loading historical data...
Loading historical data...
Loading historical data...
Loading historical data...
Loading historical data...

Documentation

Showing up to 5 results
|